N0MPM-4 Weather Reports


time (UTC)temp
F
wind
direction
speed
knots
gust
knots
rain 1hr
in
rain 24hr
in
rain mn
in
humidity
%
barometer
mb
20260906120241 71 79 0.0 0.0 0.00 0.00 0.00 28 1015.5
20260906115846 71 94 0.0 1.7 0.00 0.00 0.00 28 1015.5
20260906115741 71 98 0.0 1.7 0.00 0.00 0.00 29 1015.5
20260906115241 71 96 0.0 0.0 0.00 0.00 0.00 31 1015.5
20260906111736 72 87 0.9 0.0 0.00 0.00 0.00 40 1015.5
20260906111236 72 91 0.9 0.0 0.00 0.00 0.00 40 1015.5
20260906102209 72 96 0.0 0.0 0.00 0.00 0.00 52 1015.4
20260906101709 72 105 0.9 0.0 0.00 0.00 0.00 52 1015.4
20260906024336 80 19 0.0 0.0 0.00 0.00 0.00 76 1013.3
20260906023836 81 19 0.0 0.0 0.00 0.00 0.00 76 1013.3
20260906023336 81 19 0.0 0.0 0.00 0.00 0.00 76 1013.2
20260906023157 81 70 0.0 0.0 0.00 0.00 0.00 76 1013.1
20260906022836 81 19 0.0 0.0 0.00 0.00 0.00 75 1013.2
20260906022540 81 70 0.0 0.0 0.00 0.00 0.00 76 1013.1
20260906022336 81 89 0.0 0.0 0.00 0.00 0.00 76 1013.1
20260906021836 81 89 0.0 0.0 0.00 0.00 0.00 77 1012.8
20260906021336 81 89 0.0 0.0 0.00 0.00 0.00 77 1012.8
20260906020836 81 89 0.0 0.0 0.00 0.00 0.00 78 1012.7
20260906020336 82 89 0.0 0.0 0.00 0.00 0.00 78 1012.7
20260906015837 82 89 0.0 0.0 0.00 0.00 0.00 78 1012.7
20260906015337 82 91 0.0 0.0 0.00 0.00 0.00 78 1012.6
20260906014837 82 91 0.0 0.0 0.00 0.00 0.00 78 1012.5
20260906014337 82 91 0.0 0.0 0.00 0.00 0.00 78 1012.4
20260906013837 83 92 0.0 0.0 0.00 0.00 0.00 78 1012.4
20260906013337 83 92 0.0 0.0 0.00 0.00 0.00 78 1012.4
20260906012837 83 92 0.0 0.0 0.00 0.00 0.00 77 1012.3
20260906012337 83 92 0.0 0.0 0.00 0.00 0.00 77 1012.2
20260906011837 84 91 0.0 0.0 0.00 0.00 0.00 76 1012.2
20260906011337 84 91 0.0 0.0 0.00 0.00 0.00 76 1012.2
20260906010837 84 91 0.0 0.0 0.00 0.00 0.00 75 1012.1
20260906010456 85 91 0.0 0.0 0.00 0.00 0.00 75 1012.0
20260906010337 85 91 0.0 0.0 0.00 0.00 0.00 75 1012.0
20260906010141 85 91 0.0 0.0 0.00 0.00 0.00 75 1012.0
20260906005905 85 91 0.0 0.0 0.00 0.00 0.00 74 1011.9
20260906005837 85 92 0.0 0.0 0.00 0.00 0.00 75 1012.0
20260906005623 85 91 0.0 0.0 0.00 0.00 0.00 74 1011.9
20260906005337 86 92 0.0 0.0 0.00 0.00 0.00 74 1012.0
20260906004837 86 92 0.0 0.0 0.00 0.00 0.00 73 1011.9
20260906004830 87 92 0.0 0.0 0.00 0.00 0.00 72 1011.9
20260906004748 87 92 0.0 0.0 0.00 0.00 0.00 72 1011.9
20260906004337 87 92 0.0 0.0 0.00 0.00 0.00 72 1011.9
20260905232941 94 89 0.0 0.0 0.00 0.00 0.00 62 1011.8
20260905232538 94 89 0.0 0.0 0.00 0.00 0.00 62 1011.8
20260905232038 95 32 0.0 0.0 0.00 0.00 0.00 61 1011.8
20260905231538 95 66 0.0 1.7 0.00 0.00 0.00 62 1011.9
20260905231141 95 94 0.0 0.9 0.00 0.00 0.00 61 1011.8
20260905231038 95 86 0.0 0.0 0.00 0.00 0.00 61 1011.8
20260905230538 95 65 0.0 0.0 0.00 0.00 0.00 62 1011.8
20260905230038 94 60 0.0 0.0 0.00 0.00 0.00 64 1011.8
20260905225941 94 60 0.0 0.0 0.00 0.00 0.00 64 1011.8
20260905225857 94 64 0.0 0.0 0.00 0.00 0.00 62 1011.8
20260905225538 94 64 0.0 0.0 0.00 0.00 0.00 62 1011.8
20260905225341 94 64 0.0 0.0 0.00 0.00 0.00 62 1011.8
20260905225038 94 66 0.0 0.0 0.00 0.00 0.00 61 1011.8
20260905224739 95 82 0.0 0.0 0.00 0.00 0.00 60 1011.7
20260905224538 94 67 0.0 0.0 0.00 0.00 0.00 61 1011.7
20260905224431 96 90 0.0 0.0 0.00 0.00 0.00 60 1011.8
20260905224141 95 82 0.0 0.0 0.00 0.00 0.00 60 1011.7
20260905224038 95 82 0.0 0.0 0.00 0.00 0.00 60 1011.7
20260905223538 96 90 0.0 0.0 0.00 0.00 0.00 60 1011.8
20260905223038 96 84 0.0 0.0 0.00 0.00 0.00 59 1011.6
20260905222944 96 72 0.0 0.0 0.00 0.00 0.00 60 1011.7
20260905222656 96 32 0.0 0.9 0.00 0.00 0.00 58 1011.6
20260905222538 96 72 0.0 0.0 0.00 0.00 0.00 59 1011.6
20260905222341 96 32 0.0 0.9 0.00 0.00 0.00 58 1011.6
20260905222038 96 64 0.0 0.0 0.00 0.00 0.00 60 1011.6
20260905221538 96 60 0.0 0.0 0.00 0.00 0.00 60 1011.5
20260905221038 96 39 0.0 0.0 0.00 0.00 0.00 59 1011.4
20260905220539 96 85 0.0 1.7 0.00 0.00 0.00 59 1011.5
20260905220039 95 94 0.9 0.0 0.00 0.00 0.00 61 1011.3
20260905215942 95 94 0.9 0.0 0.00 0.00 0.00 61 1011.3
20260905215937 95 101 0.0 4.3 0.00 0.00 0.00 62 1011.3
20260905215547 95 94 0.9 0.0 0.00 0.00 0.00 61 1011.3
20260905215341 95 101 0.0 4.3 0.00 0.00 0.00 62 1011.3
20260905215039 95 101 0.0 4.3 0.00 0.00 0.00 62 1011.3
20260905214817 94 54 0.0 0.0 0.00 0.00 0.00 64 1011.4
20260905214539 95 71 0.0 0.0 0.00 0.00 0.00 63 1011.3
20260905214142 94 54 0.0 0.0 0.00 0.00 0.00 64 1011.4
20260905214039 94 54 0.0 0.0 0.00 0.00 0.00 64 1011.4
20260905213539 94 9 0.0 0.0 0.00 0.00 0.00 64 1011.4
20260905213039 94 89 0.9 2.6 0.00 0.00 0.00 63 1011.3
20260905212944 94 110 0.9 2.6 0.00 0.00 0.00 63 1011.4
20260905212539 94 105 1.7 6.1 0.00 0.00 0.00 61 1011.4
20260905212341 95 106 0.9 5.2 0.00 0.00 0.00 61 1011.3
20260905212039 95 105 0.9 4.3 0.00 0.00 0.00 60 1011.4
20260905211614 96 79 0.9 0.9 0.00 0.00 0.00 61 1011.5
20260905211539 96 92 0.0 3.5 0.00 0.00 0.00 60 1011.4
20260905211141 96 79 0.9 0.9 0.00 0.00 0.00 61 1011.5
20260905211039 96 74 0.9 0.0 0.00 0.00 0.00 61 1011.5
20260905210539 95 92 1.7 0.0 0.00 0.00 0.00 60 1011.5
20260905210039 97 94 0.9 6.1 0.00 0.00 0.00 56 1011.4
20260905205539 98 86 0.0 2.6 0.00 0.00 0.00 56 1011.4
20260905205039 98 89 0.0 0.0 0.00 0.00 0.00 57 1011.4
20260905204539 99 76 0.0 0.9 0.00 0.00 0.00 55 1011.4
20260905204142 99 84 0.0 0.9 0.00 0.00 0.00 54 1011.4
20260905204039 99 75 0.0 0.0 0.00 0.00 0.00 55 1011.4
20260905204020 99 73 0.0 0.0 0.00 0.00 0.00 57 1011.6
20260905203539 99 73 0.0 0.0 0.00 0.00 0.00 57 1011.6
20260905203039 98 54 0.0 0.0 0.00 0.00 0.00 56 1011.7
20260905202942 98 36 0.0 0.0 0.00 0.00 0.00 56 1011.7
20260905202539 98 358 0.0 0.0 0.00 0.00 0.00 56 1011.8
20260905202342 98 25 0.0 0.0 0.00 0.00 0.00 57 1011.8
20260905202039 98 9 0.0 0.0 0.00 0.00 0.00 56 1011.8
20260905201539 98 85 0.0 0.0 0.00 0.00 0.00 57 1011.9
20260905201141 98 345 0.0 0.0 0.00 0.00 0.00 57 1011.8
20260905201039 98 88 0.0 0.0 0.00 0.00 0.00 59 1011.8
20260905200539 97 58 0.0 0.0 0.00 0.00 0.00 60 1012.0
20260905200039 97 101 0.0 0.0 0.00 0.00 0.00 62 1012.1
20260905195942 97 355 0.0 0.0 0.00 0.00 0.00 61 1012.1
20260905195539 97 85 0.0 0.0 0.00 0.00 0.00 58 1012.4
20260905195344 97 85 0.0 0.0 0.00 0.00 0.00 58 1012.4
20260905195039 98 85 0.0 0.9 0.00 0.00 0.00 58 1012.3
20260905194743 98 77 0.0 0.0 0.00 0.00 0.00 57 1012.4
20260905194539 98 18 0.0 0.0 0.00 0.00 0.00 57 1012.4
20260905194142 99 55 0.0 0.0 0.00 0.00 0.00 55 1012.4
20260905194039 99 58 0.0 0.0 0.00 0.00 0.00 55 1012.4
20260905193539 100 89 0.0 0.0 0.00 0.00 0.00 56 1012.4
20260905193039 100 350 0.0 0.0 0.00 0.00 0.00 56 1012.5
20260905192942 100 340 0.0 0.0 0.00 0.00 0.00 55 1012.4
20260905192723 99 63 0.0 0.0 0.00 0.00 0.00 57 1012.5
20260905192539 99 62 0.0 0.0 0.00 0.00 0.00 55 1012.6
20260905192342 99 63 0.0 0.0 0.00 0.00 0.00 57 1012.5
20260905192039 99 356 0.0 0.0 0.00 0.00 0.00 57 1012.6
20260905191539 98 333 0.0 0.0 0.00 0.00 0.00 58 1012.7
20260905191143 99 79 0.0 0.0 0.00 0.00 0.00 57 1012.6
20260905191039 99 79 0.0 0.0 0.00 0.00 0.00 57 1012.6
20260905190539 99 57 0.0 2.6 0.00 0.00 0.00 57 1012.6
20260905190039 100 52 0.0 0.0 0.00 0.00 0.00 56 1012.9
20260905185942 100 52 0.0 0.0 0.00 0.00 0.00 56 1012.9
20260905185539 100 51 0.0 0.0 0.00 0.00 0.00 56 1012.8
20260905185343 100 357 0.0 0.0 0.00 0.00 0.00 56 1012.8
20260905185039 99 57 0.0 1.7 0.00 0.00 0.00 57 1012.8
20260905184743 99 57 0.0 1.7 0.00 0.00 0.00 57 1012.8
20260905184539 99 81 0.0 0.0 0.00 0.00 0.00 57 1012.8
20260905184312 99 334 0.0 0.0 0.00 0.00 0.00 55 1013.0
20260905184143 99 334 0.0 0.0 0.00 0.00 0.00 55 1013.0
20260905184039 99 334 0.0 0.0 0.00 0.00 0.00 55 1013.0
20260905183539 99 65 0.0 0.0 0.00 0.00 0.00 57 1013.0
20260905181308 95 354 0.0 0.0 0.00 0.00 0.00 63 1013.4
20260905181211 95 354 0.0 0.0 0.00 0.00 0.00 63 1013.4
20260905180808 95 349 0.0 0.0 0.00 0.00 0.00 65 1013.4
20260905180611 94 350 0.0 0.0 0.00 0.00 0.00 65 1013.4
20260905180309 93 328 0.0 0.0 0.00 0.00 0.00 66 1013.4
20260905180011 93 357 0.0 0.0 0.00 0.00 0.00 65 1013.5
20260905175809 93 342 0.0 0.0 0.00 0.00 0.00 63 1013.5
20260905175413 92 340 0.0 1.7 0.00 0.00 0.00 63 1013.5
20260905175309 92 337 0.0 1.7 0.00 0.00 0.00 63 1013.5
20260905174809 93 342 0.0 0.0 0.00 0.00 0.00 64 1013.4
20260905174309 93 343 0.0 0.0 0.00 0.00 0.00 62 1013.4
20260905174211 93 341 0.0 0.0 0.00 0.00 0.00 61 1013.4
20260905173809 94 337 0.0 0.0 0.00 0.00 0.00 62 1013.3
20260905173611 94 352 0.0 0.0 0.00 0.00 0.00 62 1013.3
20260905173309 95 348 0.0 0.0 0.00 0.00 0.00 61 1013.3
20260905172809 96 348 0.0 0.0 0.00 0.00 0.00 59 1013.3
20260905172413 97 343 0.0 0.0 0.00 0.00 0.00 57 1013.3
20260905172309 97 343 0.0 0.0 0.00 0.00 0.00 57 1013.3
20260905171809 97 338 0.0 0.0 0.00 0.00 0.00 58 1013.2